Location: Focicchia
(42.2496°N, 9.2935°E)
Time: 03:39:43
(UTC+00:00)

X-37B - Pass Details

Date: 05 August 2021
Orbit: 381 x 393 km, 45.0° (Epoch: 29 August)

Event Time Altitude Azimuth Distance (km) Brightness Sun altitude
Exits shadow 01:20:29 11° 86° (E) 1,329 3.7 -25.5°
Drops below altitude 10° 01:20:40 10° 85° (E) 1,396 3.8 -25.4°
Sets 01:22:51 0° 75° (ENE) 2,251 5.1 -25.2°
